Regional Weather Roundup
Issued by NWS

Home | Current Version | Previous Version | Text Only | Print | Product List | Glossary On
Versions: 1 2 3 4 5 6 7 8 9 10 11 12 13 14 15 16 17 18 19 20 21 22 23 24 25 26 27 28 29 30 31 32 33 34 35 36 37 38 39 40 41 42 43 44 45 46 47 48 49 50
000
ASUS42 KFFC 301803
RWRGA
WEATHER ROUNDUP FOR GEORGIA
NATIONAL WEATHER SERVICE PEACHTREE CITY GA
100 PM EST FRI JAN 30 2015

NOTE: "FAIR" INDICATES FEW OR NO CLOUDS BELOW 12,000 FEET WITH NO
SIGNIFICANT WEATHER AND/OR OBSTRUCTIONS TO VISIBILITY.

* = USE WITH CAUTION. THE STATIONS MARKED WITH AN ASTERISK MAY NOT
REPORT WEATHER SUCH AS PRECIPITATION, FOG, OR THUNDER AND ARE NOT
QUALITY CONTROLLED BY NWS.

THE REMARK "TC" DENOTES TEMPERATURE READING IN DEGREES CELSIUS.

GAZ001>058-301900-
NORTH GEORGIA

CITY           SKY/WX    TMP DP  RH WIND       PRES   REMARKS
ATLANTA        MOSUNNY   48  23  37 NW21G28   30.29F
6HR MIN TEMP:  38; 6HR MAX TEMP:  48;

ATHENS         SUNNY     51  21  30 NW12G24   30.23F
6HR MIN TEMP:  37; 6HR MAX TEMP:  52;

CHAMBLEE       SUNNY     46  22  38 NW17G30   30.29F
6HR MIN TEMP:  37; 6HR MAX TEMP:  47;

PEACHTREE CITY SUNNY     49  23  36 N16G25    30.31F
6HR MIN TEMP:  37; 6HR MAX TEMP:  49;

ROME           SUNNY     46  26  45 NW15G23   30.36F
6HR MIN TEMP:  39; 6HR MAX TEMP:  46;

WEST ATLANTA   SUNNY     47  23  38 NW15G26   30.31F
6HR MIN TEMP:  38; 6HR MAX TEMP:  47;

GAINESVILLE    SUNNY     47  18  31 NW17G29   30.25F
6HR MIN TEMP:  36; 6HR MAX TEMP:  47;

CARTERSVILLE   SUNNY     46  23  40 N12G20    30.35F
6HR MIN TEMP:  39; 6HR MAX TEMP:  46;



CITY           SKY/WX    TMP DP  RH WIND       PRES   REMARKS
DALTON*        MOSUNNY   41  28  60 N8G25     30.38F
LAWRENCEVILLE* SUNNY     48  19  32 NW14G25   30.25F
MARIETTA       MOSUNNY   46  25  42 W20G25    30.30F
KENNESAW*      SUNNY     45  25  45 N12G25    30.33F
$$

GAZ059>098-102>109-301900-
CENTRAL GEORGIA

CITY           SKY/WX    TMP DP  RH WIND       PRES   REMARKS
AUGUSTA-BUSH   SUNNY     55  25  31 N17       30.20F
6HR MIN TEMP:  45; 6HR MAX TEMP:  55;

AUGUSTA-DANIEL SUNNY     54  24  31 NW14G22   30.21F
6HR MIN TEMP:  46; 6HR MAX TEMP:  54;

COLUMBUS       SUNNY     52  26  36 VRB7G17   30.30F
6HR MIN TEMP:  41; 6HR MAX TEMP:  53;

MACON          SUNNY     54  27  35 NW13G20   30.26F
6HR MIN TEMP:  40; 6HR MAX TEMP:  54;

ROBINS AFB     SUNNY     55  26  32 NW13G21   30.27F


CITY           SKY/WX    TMP DP  RH WIND       PRES   REMARKS
LAGRANGE*      SUNNY     54  31  41 N8G17     30.31F
SYLVANIA*      SUNNY     56  35  45 NW15      30.19F
MILLEDGEVILLE* SUNNY     52  32  46 NW8       30.26F
$$

GAZ099>101-110>166-301900-
SOUTH GEORGIA

CITY           SKY/WX    TMP DP  RH WIND       PRES   REMARKS
SAVANNAH       MOSUNNY   58  34  40 NW20      30.17F
6HR MIN TEMP:  52; 6HR MAX TEMP:  58;

VALDOSTA       MOSUNNY   58  34  40 N14       30.24F
6HR MIN TEMP:  52; 6HR MAX TEMP:  58;

ALMA           SUNNY     56  28  34 NW15G21   30.22F
6HR MIN TEMP:  52; 6HR MAX TEMP:  57;

ST SIMONS      SUNNY     60  35  39 NW15G22   30.16F
6HR MIN TEMP:  52; 6HR MAX TEMP:  60;

FT STEWART     SUNNY     57  33  40 N14G22    30.17F
ALBANY         SUNNY     56  28  34 N10       30.29F
HUNTER AFB     SUNNY     59  36  42 NW17      30.14F
MOODY AFB      SUNNY     57  34  41 N15       30.22F
BRUNSWICK      SUNNY     61  34  36 NW10G20   30.18S


CITY           SKY/WX    TMP DP  RH WIND       PRES   REMARKS
BAINBRIDGE*    SUNNY     59  34  38 N9        30.29F
MOULTRIE*      SUNNY     54  34  47 NW10      30.26F
VIDALIA*       SUNNY     55  32  41 NW10G21   30.22F
WAYCROSS*      SUNNY     61  36  38 NW13      30.21F
DOUGLAS*       SUNNY     57  30  35 NW9       30.25F
$$



USA.gov is the U.S. government's official web portal to all federal, state and local government web resources and services.